Location: Alta
(39.2070°N, 120.8111°W)
Time: 05:41:30
(UTC+00:00)

CZ-4B DEB - Pass Details

Date: 11 December 2023
Orbit: 838 x 858 km, 99.0° (Epoch: 02 March)

Event Time Altitude Azimuth Distance (km) Brightness Sun altitude
Rises 03:54:18 0° 192° (SSW) 3,413 7.5 -36.7°
Reaches altitude 10° 03:56:55 10° 202° (SSW) 2,483 6.8 -37.2°
Enters shadow 03:58:35 18° 214° (SW) 1,972 6.4 -37.6°
Exits shadow 04:02:04 31° 270° (W) 1,474 5.8 -38.2°
Drops below altitude 10° 04:06:37 10° 325° (NW) 2,500 7.0 -39.1°
Sets 04:09:18 0° 336° (NNW) 3,440 7.6 -39.6°
